#timestamp,LO_Frequency,Hit,StdDev 
1537426815.6,286046998.9,N
1537426835.5,286046999.6,N
1537426855.3,286046998.9,N
1537426875.2,286046999.4,N
1537426895.9,286047000.9,N
1537426915.7,286047000.2,N
1537426935.6,286047000.4,N
1537426955.4,286047000.6,N
1537426975.2,286047000.0,N
1537426995.1,286047000.9,N
1537426996.0,286047000.9,N
1537427015.8,286047000.2,N
1537427035.7,286047001.0,N
1537427055.5,286046999.9,N
1537427075.3,286046998.5,N
1537427095.2,286046998.5,N
1537427115.9,286047001.2,N
1537427135.7,286047000.9,N
1537427155.6,286046998.7,N
1537427175.4,286047001.1,N
1537427195.3,286047001.2,N
1537427215.1,286046998.2,N
1537427216.0,286046998.2,N
1537427235.8,286046998.7,N
1537427255.7,286046999.0,N
1537427275.5,286046996.6,Y
1537427295.4,286046999.1,P
1537427315.2,286046999.1,P
1537427335.0,286046998.1,P
1537427335.9,286046998.1,Y
1537427355.8,286047000.4,P
1537427375.6,286047000.6,N
1537427395.4,286047002.8,P
1537427415.3,286047002.0,N
1537427435.1,286047002.8,N
1537427455.9,286047000.1,N
1537427475.7,286046998.3,N
1537427495.5,286047000.7,N
1537427515.4,286046999.8,N
1537427535.2,286047000.8,N
1537427555.1,286046998.2,N
1537427556.0,286046998.2,N
1537427575.8,286047000.4,N
1537427595.6,286047000.7,N
1537427615.5,286046999.9,N
1537427635.3,286047000.9,N
1537427655.1,286046999.9,N
1537427675.9,286047000.9,N
1537427695.7,286047001.1,N
1537427715.6,286046998.5,N
1537427735.4,286047000.7,N
1537427755.2,286047001.0,N
1537427775.1,286046999.9,N
1537427776.0,286046999.9,N
1537427795.8,286047000.9,N
1537427815.6,286047000.0,N
1537427835.5,286046999.8,N
1537427855.3,286046998.1,N
1537427875.2,286047001.1,N
1537427895.9,286047001.2,N
1537427915.7,286046998.4,N
1537427935.6,286046999.0,N
1537427955.4,286046998.4,N
1537427975.2,286046996.6,N
1537427995.1,286046997.0,N
1537427996.0,286046997.0,N
1537428015.8,286046996.5,N
1537428035.6,286046996.6,N
1537428055.5,286046997.0,N
1537428075.3,286046997.3,N
1537428095.2,286046996.7,N
1537428115.9,286046999.2,N
1537428135.7,286046998.8,N
1537428155.6,286046996.6,N
1537428175.4,286046998.7,N
1537428195.3,286046996.5,N
1537428215.1,286046996.5,N
1537428216.0,286046996.5,N
1537428235.8,286046999.0,N
1537428255.7,286046999.3,N
1537428275.5,286046999.0,N
1537428295.3,286046999.1,N
1537428315.2,286046998.9,N
1537428335.0,286046999.0,N
1537428335.9,286046999.0,N
1537428355.8,286046998.7,N
1537428375.6,286046998.8,N
1537428395.4,286046999.4,N
1537428415.3,286046998.4,N
1537428435.1,286046999.0,N
1537428455.9,286046998.5,N
1537428475.7,286046999.0,N
1537428495.5,286046999.1,N
1537428515.4,286046998.6,N
1537428535.2,286046998.9,N
1537428585.1,286046997.1,E
1537428595.9,286046999.4,N
1537428615.7,286047000.3,P
1537428635.6,286047000.6,N
1537428655.4,286047000.6,N
1537428675.3,286047002.8,Y
1537428695.1,286047002.8,P
1537428696.0,286047002.8,N
1537428715.8,286047001.0,N
1537428735.7,286046998.1,N
1537428755.5,286046998.2,N
1537428775.3,286046998.6,N
1537428795.2,286046998.4,N
1537428815.0,286046998.4,N
1537428815.9,286046998.4,N
1537428835.8,286046999.6,N
1537428855.6,286046999.1,N
1537428875.4,286046998.3,N
1537428895.3,286046998.3,N
1537428915.1,286046998.7,N
1537428935.8,286046999.3,N
1537428955.7,286046999.5,N
1537428975.5,286046998.3,N
1537428995.3,286046999.4,N
1537429015.2,286046998.1,N
1537429035.0,286047001.0,N
1537429035.9,286047001.0,N
1537429055.8,286046998.1,N
1537429075.6,286046998.8,N
1537429095.4,286046999.1,N
1537429115.3,286046999.4,N
1537429135.1,286046996.7,N
1537429155.8,286046996.8,N
1537429175.7,286046996.9,N
1537429195.5,286046999.2,N
1537429215.4,286047000.8,N
1537429235.2,286047000.5,N
1537429255.0,286046999.2,N
1537429255.9,286046999.2,N
1537429275.8,286046999.4,N
1537429295.6,286046998.3,N
1537429315.4,286046998.4,N
1537429335.3,286047000.3,N
1537429355.1,286047000.6,N
1537429375.9,286046998.2,N
1537429395.7,286046999.6,N
1537429415.5,286046999.6,N
1537429435.4,286046998.7,N
1537429455.2,286046999.6,N
1537429475.0,286046998.5,N
1537429475.9,286046998.5,N
1537429495.8,286046998.1,N
1537429515.6,286046998.3,N
1537429535.4,286046998.1,N
1537429555.3,286046999.3,N
1537429575.1,286046999.2,N
1537429595.9,286046996.6,Y
1537429615.7,286046997.0,P
1537429635.5,286046995.0,P
1537429655.4,286046996.8,N
1537429675.2,286046999.3,N
1537429695.0,286046999.2,N
1537429696.0,286046999.2,N
1537429715.8,286046998.3,N
1537429735.6,286046997.7,N
1537429755.5,286046996.8,N
1537429775.3,286046997.4,N
1537429795.1,286046999.6,N
1537429815.9,286046996.6,N
1537429835.7,286046997.3,N
1537429855.5,286046997.9,N
1537429875.4,286046997.5,N
1537429895.2,286046996.9,N
1537429915.1,286046996.6,N
1537429916.0,286046996.6,N
1537429935.8,286046997.2,N
1537429955.6,286046998.9,N
1537429975.5,286046999.8,N
1537429995.3,286047001.6,N
1537430015.1,286047002.6,N
1537430035.9,286047004.4,N
1537430055.7,286047004.4,N
1537430075.6,286047000.1,N
1537430095.4,286047001.6,N
1537430115.2,286047000.2,N
1537430135.1,286047002.6,N
1537430136.0,286047002.6,N
1537430155.8,286047003.9,N
1537430175.6,286047002.0,N
1537430195.5,286046999.8,N
1537430215.3,286047001.1,N
1537430235.2,286046998.9,N
1537430255.9,286046998.3,N
1537430275.7,286046998.1,N
1537430295.6,286046996.8,N
1537430315.4,286046999.4,N
1537430335.2,286046999.9,N
1537430355.1,286047000.4,N
1537430356.0,286047000.4,N
1537430375.8,286047000.5,N
1537430395.7,286047002.8,N
